Corpus Christi, TX

3:32 AM CDT on August 22, 2017 (GMT -0500)
Corpus Christi International

Weather History for KCRP - November, 2011

Change the Weather History Date:

Friday, November 11, 2011

  Actual Average Record
Temperature  
Mean Temperature 53 °F 68 °F  
Max Temperature 74 °F 77 °F 89 °F (1962)
Min Temperature 32 °F 58 °F 32 °F (2011)
Degree Days  
Heating Degree Days 12 2  
Month to date heating degree days 31 17  
Since 1 July heating degree days 43 27  
Cooling Degree Days 0 5  
Month to date cooling degree days 59 62  
Year to date cooling degree days 3968 3413  
Growing Degree Days 3 (Base 50)    
Moisture  
Dew Point 35 °F    
Average Humidity 53    
Maximum Humidity 82    
Minimum Humidity 23    
Precipitation  
Precipitation 0.00 in 0.07 in 2.79 in (1957)
Month to date precipitation 0.28 0.91  
Year to date precipitation 10.82 28.87  
Snow  
Snow 0.00 in - - ()
Month to date snowfall 0.0  
Since 1 July snowfall 0.0  
Since 1 September snowfall 0.0  
Snow Depth 0.00 in    
Sea Level Pressure  
Sea Level Pressure 30.23 in    
Wind  
Wind Speed 7 mph (SSE)    
Max Wind Speed 21 mph    
Max Gust Speed 24 mph    
Visibility 10 miles    
Events      
T = Trace of Precipitation, MM = Missing Value Source: NWS Daily Summary

Daily Weather History Graph

Daily Weather History Graph

Search for Another Location

Airport or City:

Trip Planner

Search our weather history database for the weather conditions in past years. The results will help you decide how hot, cold, wet, or windy it might be!

Date:

Astronomy

Nov. 11, 2011 Rise Set
Actual Time 6:47 AM CST 5:39 PM CST
Civil Twilight 6:23 AM CST 6:04 PM CST
Nautical Twilight 5:55 AM CST 6:32 PM CST
Astronomical Twilight 5:27 AM CST 7:00 PM CST
Moon 6:17 PM CST (11/11) 7:30 AM CST (11/11)
Length of Visible Light 11h 40m
Length of Day
10h 51m
Full, 99% of the Moon is Illuminated
Nov 11
Full
Nov 18
Last Quarter
Nov 25
New
Dec 2
First Quarter
Dec 10
Full

Hourly Weather History & Observations

Time (CST) Temp. Windchill Dew Point Humidity Pressure Visibility Wind Dir Wind Speed Gust Speed Precip Events Conditions
12:51 AM 43.0 °F 41.3 °F 30.9 °F 62% 30.33 in 10.0 mi West 3.5 mph - N/A   Clear
1:51 AM 44.1 °F 42.5 °F 30.0 °F 58% 30.33 in 10.0 mi West 3.5 mph - N/A   Clear
2:51 AM 39.0 °F - 28.9 °F 67% 30.30 in 10.0 mi Calm Calm - N/A   Clear
3:51 AM 37.0 °F - 28.0 °F 70% 30.29 in 10.0 mi Calm Calm - N/A   Clear
4:51 AM 34.0 °F - 27.0 °F 75% 30.30 in 10.0 mi Calm Calm - N/A   Clear
5:51 AM 35.1 °F - 30.0 °F 82% 30.31 in 10.0 mi Calm Calm - N/A   Clear
6:51 AM 33.8 °F 30.8 °F 28.4 °F 81% 30.31 in 10.0 mi WSW 3.5 mph - N/A   Partly Cloudy
7:51 AM 39.2 °F - 32.0 °F 75% 30.32 in 10.0 mi Calm Calm - N/A   Partly Cloudy
8:51 AM 53.6 °F - 35.6 °F 51% 30.32 in 10.0 mi Calm Calm - N/A   Partly Cloudy
9:51 AM 62.6 °F - 33.8 °F 34% 30.32 in 10.0 mi Calm Calm - N/A   Partly Cloudy
10:51 AM 66.0 °F - 30.0 °F 26% 30.30 in 10.0 mi ESE 3.5 mph - N/A   Clear
11:51 AM 70.0 °F - 32.0 °F 25% 30.26 in 10.0 mi SE 8.1 mph - N/A   Clear
12:51 PM 72.0 °F - 32.0 °F 23% 30.22 in 10.0 mi SE 13.8 mph 17.3 mph N/A   Clear
1:23 PM 73.4 °F - 32.0 °F 22% 30.20 in 10.0 mi SSW 12.7 mph 21.9 mph N/A   Partly Cloudy
1:51 PM 73.4 °F - 33.8 °F 23% 30.19 in 10.0 mi South 11.5 mph 17.3 mph N/A   Partly Cloudy
2:51 PM 73.4 °F - 35.6 °F 25% 30.17 in 10.0 mi South 12.7 mph 19.6 mph N/A   Partly Cloudy
3:51 PM 71.6 °F - 37.4 °F 29% 30.14 in 10.0 mi SSE 17.3 mph - N/A   Partly Cloudy
4:51 PM 69.8 °F - 39.2 °F 33% 30.14 in 10.0 mi SE 16.1 mph - N/A   Partly Cloudy
5:51 PM 64.4 °F - 42.8 °F 45% 30.14 in 10.0 mi SE 10.4 mph - N/A   Partly Cloudy
6:51 PM 59.0 °F - 43.0 °F 55% 30.14 in 10.0 mi SE 9.2 mph - N/A   Clear
7:51 PM 55.9 °F - 43.0 °F 62% 30.14 in 10.0 mi SE 10.4 mph - N/A   Clear
8:51 PM 55.9 °F - 44.1 °F 64% 30.14 in 10.0 mi SSE 8.1 mph - N/A   Partly Cloudy
9:51 PM 53.1 °F - 42.1 °F 66% 30.14 in 10.0 mi South 8.1 mph - N/A   Partly Cloudy
10:51 PM 54.0 °F - 43.0 °F 66% 30.13 in 10.0 mi SSE 8.1 mph - N/A   Clear
11:51 PM 54.0 °F - 44.1 °F 69% 30.11 in 10.0 mi South 9.2 mph - N/A   Clear